Henderson, KY

5:12 PM CST on November 20, 2017 (GMT -0600)
Henderson City-County

Weather History for KEHR - October, 2012

Change the Weather History Date:

Friday, October 12, 2012

  Actual Average Record
Temperature  
Mean Temperature 59 °F -  
Max Temperature 68 °F 74 °F 88 °F (1962)
Min Temperature 50 °F 49 °F 29 °F (1988)
Degree Days  
Heating Degree Days 6    
Growing Degree Days 9 (Base 50)    
Moisture  
Dew Point 44 °F    
Average Humidity 64    
Maximum Humidity 76    
Minimum Humidity 43    
Precipitation  
Precipitation 0.01 in - - ()
Sea Level Pressure  
Sea Level Pressure 30.27 in    
Wind  
Wind Speed 3 mph (East)    
Max Wind Speed 13 mph    
Max Gust Speed -    
Visibility 10 miles    
Events Thunderstorm    
Averages and records for this station are not official NWS values.
T = Trace of Precipitation, MM = Missing Value Source: NWS Daily Summary

Daily Weather History Graph

Daily Weather History Graph

Search for Another Location

Airport or City:

Trip Planner

Search our weather history database for the weather conditions in past years. The results will help you decide how hot, cold, wet, or windy it might be!

Date:

Astronomy

Oct. 12, 2012 Rise Set
Actual Time 6:56 AM CDT 6:16 PM CDT
Civil Twilight 6:30 AM CDT 6:43 PM CDT
Nautical Twilight 5:59 AM CDT 7:13 PM CDT
Astronomical Twilight 5:29 AM CDT 7:43 PM CDT
Moon 3:42 AM CDT (10/12) 4:24 PM CDT (10/12)
Length of Visible Light 12h 12m
Length of Day
11h 20m
Waning Crescent, 10% of the Moon is Illuminated
Oct 12
Waning Crescent
Oct 15
New
Oct 21
First Quarter
Oct 29
Full
Nov 6
Last Quarter

Hourly Weather History & Observations

Time (CDT) Temp. Dew Point Humidity Pressure Visibility Wind Dir Wind Speed Gust Speed Precip Events Conditions
12:15 AM 53.6 °F 39.2 °F 58% 30.19 in 10.0 mi Calm Calm - N/A   Overcast
12:35 AM 53.6 °F 41.0 °F 62% 30.19 in 10.0 mi East 3.5 mph - N/A   Overcast
12:55 AM 53.6 °F 41.0 °F 62% 30.22 in 10.0 mi West 3.5 mph - N/A Thunderstorm Overcast
1:15 AM 51.8 °F 42.8 °F 71% 30.21 in 10.0 mi SW 9.2 mph - 0.01 in   Overcast
1:35 AM 51.8 °F 42.8 °F 71% 30.21 in 10.0 mi West 5.8 mph - 0.01 in   Overcast
1:55 AM 51.8 °F 42.8 °F 71% 30.22 in 10.0 mi West 4.6 mph - 0.01 in   Overcast
2:15 AM 51.8 °F 42.8 °F 71% 30.22 in 10.0 mi West 3.5 mph - N/A   Overcast
2:35 AM 51.8 °F 42.8 °F 71% 30.23 in 10.0 mi Calm Calm - N/A   Overcast
2:55 AM 51.8 °F 42.8 °F 71% 30.22 in 10.0 mi Calm Calm - N/A   Overcast
3:15 AM 51.8 °F 42.8 °F 71% 30.22 in 10.0 mi Calm Calm - N/A   Overcast
3:35 AM 51.8 °F 42.8 °F 71% 30.22 in 10.0 mi Calm Calm - N/A   Overcast
3:55 AM 51.8 °F 44.6 °F 76% 30.23 in 10.0 mi West 3.5 mph - N/A   Overcast
4:15 AM 51.8 °F 42.8 °F 71% 30.21 in 8.0 mi Calm Calm - N/A   Overcast
4:35 AM 51.8 °F 42.8 °F 71% 30.21 in 10.0 mi Calm Calm - N/A   Overcast
4:55 AM 51.8 °F 44.6 °F 76% 30.22 in 10.0 mi NE 5.8 mph - N/A   Overcast
5:15 AM 51.8 °F 42.8 °F 71% 30.23 in 10.0 mi NE 4.6 mph - N/A   Overcast
5:55 AM 51.8 °F 42.8 °F 71% 30.25 in 10.0 mi Calm Calm - N/A   Overcast
6:15 AM 51.8 °F 42.8 °F 71% 30.24 in 10.0 mi ENE 4.6 mph - N/A   Overcast
6:35 AM 51.8 °F 42.8 °F 71% 30.25 in 10.0 mi Calm Calm - N/A   Overcast
6:55 AM 51.8 °F 44.6 °F 76% 30.25 in 10.0 mi East 3.5 mph - N/A   Overcast
7:15 AM 51.8 °F 44.6 °F 76% 30.26 in 10.0 mi Calm Calm - N/A   Overcast
7:35 AM 51.8 °F 44.6 °F 76% 30.27 in 10.0 mi Calm Calm - N/A   Overcast
7:55 AM 53.6 °F 44.6 °F 72% 30.29 in 10.0 mi Calm Calm - N/A   Overcast
8:15 AM 53.6 °F 44.6 °F 72% 30.29 in 10.0 mi Calm Calm - N/A   Overcast
8:35 AM 53.6 °F 44.6 °F 72% 30.30 in 10.0 mi ENE 3.5 mph - N/A   Overcast
9:15 AM 55.4 °F 44.6 °F 67% 30.31 in 10.0 mi Calm Calm - N/A   Overcast
9:35 AM 55.4 °F 44.6 °F 67% 30.32 in 10.0 mi Calm Calm - N/A   Overcast
9:55 AM 55.4 °F 44.6 °F 67% 30.32 in 10.0 mi Calm Calm - N/A   Mostly Cloudy
10:15 AM 57.2 °F 44.6 °F 63% 30.32 in 10.0 mi NE 4.6 mph - N/A   Partly Cloudy
10:35 AM 57.2 °F 44.6 °F 63% 30.32 in 10.0 mi East 5.8 mph - N/A   Clear
10:55 AM 59.0 °F 44.6 °F 59% 30.33 in 10.0 mi ENE 8.1 mph - N/A   Clear
11:15 AM 60.8 °F 44.6 °F 55% 30.33 in 10.0 mi ENE 9.2 mph - N/A   Clear
11:35 AM 62.6 °F 44.6 °F 52% 30.33 in 10.0 mi ENE 12.7 mph - N/A   Clear
11:55 AM 62.6 °F 44.6 °F 52% 30.33 in 10.0 mi East 11.5 mph - N/A   Clear
12:15 PM 62.6 °F 42.8 °F 48% 30.33 in 10.0 mi East 10.4 mph - N/A   Clear
12:35 PM 64.4 °F 42.8 °F 45% 30.32 in 10.0 mi East 8.1 mph - N/A   Clear
12:55 PM 64.4 °F 44.6 °F 49% 30.31 in 10.0 mi ENE 8.1 mph - N/A   Clear
1:35 PM 66.2 °F 44.6 °F 46% 30.31 in 10.0 mi ESE 4.6 mph - N/A   Clear
1:55 PM 66.2 °F 44.6 °F 46% 30.29 in 10.0 mi NE 8.1 mph - N/A   Clear
2:15 PM 68.0 °F 44.6 °F 43% 30.30 in 10.0 mi Calm Calm - N/A   Clear
2:35 PM 66.2 °F 44.6 °F 46% 30.28 in 10.0 mi NNE 8.1 mph - N/A   Clear
2:55 PM 66.2 °F 46.4 °F 49% 30.27 in 8.0 mi NE 6.9 mph - N/A   Clear
3:15 PM 66.2 °F 46.4 °F 49% 30.28 in 5.0 mi North 3.5 mph - N/A   Clear
3:35 PM 66.2 °F 46.4 °F 49% 30.28 in 10.0 mi Calm Calm - N/A   Clear
3:55 PM 66.2 °F 46.4 °F 49% 30.28 in 10.0 mi NNE 5.8 mph - N/A   Clear
4:15 PM 66.2 °F 46.4 °F 49% 30.27 in 10.0 mi ENE 4.6 mph - N/A   Clear
4:35 PM 64.4 °F 46.4 °F 52% 30.27 in 10.0 mi ENE 5.8 mph - N/A   Clear
5:15 PM 64.4 °F 46.4 °F 52% 30.27 in 10.0 mi East 3.5 mph - N/A   Clear
5:55 PM 62.6 °F 44.6 °F 52% 30.25 in 10.0 mi East 3.5 mph - N/A   Clear
6:15 PM 60.8 °F 44.6 °F 55% 30.25 in 10.0 mi East 4.6 mph - N/A   Clear
6:35 PM 59.0 °F 44.6 °F 59% 30.26 in 10.0 mi Calm Calm - N/A   Clear
6:55 PM 57.2 °F 44.6 °F 63% 30.27 in 10.0 mi Calm Calm - N/A   Clear
7:15 PM 53.6 °F 42.8 °F 67% 30.27 in 10.0 mi Calm Calm - N/A   Clear
7:35 PM 53.6 °F 42.8 °F 67% 30.28 in 10.0 mi Calm Calm - N/A   Clear
7:55 PM 53.6 °F 42.8 °F 67% 30.28 in 10.0 mi Calm Calm - N/A   Clear
8:15 PM 51.8 °F 42.8 °F 71% 30.28 in 10.0 mi Calm Calm - N/A   Clear
8:35 PM 51.8 °F 41.0 °F 67% 30.29 in 10.0 mi South 3.5 mph - N/A   Clear
9:15 PM 51.8 °F 41.0 °F 67% 30.28 in 10.0 mi South 3.5 mph - N/A   Clear
9:35 PM 51.8 °F 42.8 °F 71% 30.28 in 10.0 mi Calm Calm - N/A   Clear
9:55 PM 51.8 °F 42.8 °F 71% 30.28 in 10.0 mi Calm Calm - N/A   Clear
10:15 PM 51.8 °F 41.0 °F 67% 30.27 in 10.0 mi SE 3.5 mph - N/A   Clear
10:35 PM 50.0 °F 41.0 °F 71% 30.27 in 10.0 mi Calm Calm - N/A   Clear
10:55 PM 50.0 °F 41.0 °F 71% 30.27 in 10.0 mi Calm Calm - N/A   Clear
11:15 PM 50.0 °F 41.0 °F 71% 30.27 in 10.0 mi SSE 3.5 mph - N/A   Clear
11:35 PM 51.8 °F 42.8 °F 71% 30.26 in 10.0 mi SE 3.5 mph - N/A   Clear
11:55 PM 51.8 °F 44.6 °F 76% 30.26 in 10.0 mi SSE 3.5 mph - N/A   Clear